Regional Weather Roundup
Issued by NWS New Orleans/Baton Rouge, LA

Home | Current Version | Previous Version | Text Only | Print | Product List | Glossary Off
Versions: 1 2 3 4 5 6 7 8 9 10 11 12 13 14 15 16 17 18 19 20 21 22 23 24 25 26 27 28 29 30 31 32 33 34 35 36 37 38 39 40 41 42 43 44 45 46 47 48 49 50

541
ASUS44 KLIX 211610
RWRLIX
NEW ORLEANS REGIONAL WEATHER ROUNDUP
NATIONAL WEATHER SERVICE NEW ORLEANS LA
1100 AM CDT THU AUG 21 2014

NOTE: "FAIR" INDICATES FEW OR NO CLOUDS BELOW 12,000 FEET WITH NO
      SIGNIFICANT WEATHER AND/OR OBSTRUCTIONS TO VISIBILITY.
      SKY/WX - SKY CONDITION AND SIGNIFICANT WEATHER.
      TMP - AIR TEMPERATURE.     DP    - DEWPOINT TEMPERATURE.
      RH  - RELATIVE HUMIDITY.   PRES  - PRESSURE.
      HI  - HEAT INDEX.          WCI   - WIND CHILL INDEX.

*  THESE STATIONS ARE NOT NWS OR FAA STATIONS AND ARE NOT UNDER
   NWS QUALITY CONTROL.

LAZ038-040-048-061>063-065>067-069-211700-
SOUTHEAST LOUISIANA

CITY           SKY/WX    TMP DP  RH WIND       PRES   REMARKS
N.O. AUDUBON     N/A     92  74  55 MISG        N/A  HX 101
N.O. INTL ARPT PTSUNNY   90  75  61 S7        30.15R HX 100
N.O. LAKEFRONT PTSUNNY   86  76  71 N5        30.15S HX  96
N.O. DOWNTOWN* PTSUNNY   91  73  55 S7        30.15S HX 100
SLIDELL        SUNNY     89  73  59 VRB3      30.14S HX  97
BATON ROUGE    PTSUNNY   87  75  67 S5        30.14S HX  96
BOOTHVILLE     PTSUNNY   89  77  67 VRB3      30.16R HX 101
BELLE CHASSE   PTSUNNY   90  74  59 W3        30.14S HX  99
BOGALUSA*        N/A     89  74  60 W3        30.16S HX  98
GALLIANO*      NOT AVBL
NEW ROADS*       N/A     87  78  76 S5        30.14S HX 100
GONZALES*        N/A     87  79  78 CALM      30.14R HX 101
HAMMOND*       SUNNY     91  70  49 SW3       30.16S HX  97
HOUMA*         MOSUNNY   90  73  58 CALM      30.14S HX  98
PORT FOURCHON* SUNNY     90  75  62 VRB6      30.17R HX 100

$$

MSZ070-080>082-211700-
SOUTHERN MISSISSIPPI

CITY           SKY/WX    TMP DP  RH WIND       PRES   REMARKS
MCCOMB         MOSUNNY   87  73  62 S6        30.16R
GULFPORT       SUNNY     92  73  53 CALM      30.14S HX 100
BILOXI         SUNNY     91  73  57 VRB1      30.15S HX  99
PASCAGOULA     MOSUNNY   91  76  61 N5        30.15S HX 103
STENNIS ARPT*  MOSUNNY  N/A N/A N/A CALM      30.15S

$$

COASTAL OBSERVATIONS
LAKE AND NEARSHORE STATIONS

STATION/POSITION TIME  TEMP    WIND        PRES    WAVE
                       AIR SEA DIR/SP/G            HT/PER
                 (UTC) (F)     (DEG/KT/KT) (MB)    (FT/S)
PASCAGOULA       1600   90     340/  3/  5 1020.5
WAVELAND YACHT   1600   85     150/  5/  6 1020.4
GRAND ISLE       1600   87 88  150/  3/  6 1021.7
SOUTHWEST PASS   1600   91 88  200/  1/  2 1021.5
NEW CANAL        1600   85 83   20/  5/  6 1021.3
SHELL BEACH      1600   85 82   10/  4/  5 1021.0

OFFSHORE STATIONS

STATION/POSITION TIME  TEMP    WIND        PRES    WAVE
                       AIR SEA DIR/SP/G            HT/PER
                 (UTC) (F)     (DEG/KT/KT) (MB)    (FT/S)
64 S DAUPHIN ISL 1541   85 89   10/  4/  6 1021.4

$$




USA.gov is the U.S. government's official web portal to all federal, state and local government web resources and services.